{"data":{"norad_id":58217,"epoch":"2026-05-25T04:59:29.522976Z","epoch_age_seconds":61000,"freshness":"FRESH","line1":"1 58217U 23170M   26145.20798059  .00005152  00000+0  19666-3 0  9997","line2":"2 58217  43.0015 121.9443 0001181 250.6284 109.4440 15.27574053142008","mean_motion":15.27574053,"eccentricity":0.0001181,"inclination_deg":43.0015,"raan_deg":121.9443,"arg_perigee_deg":250.6284,"mean_anomaly_deg":109.444,"bstar":0.00019666,"rev_number":14200,"period_min":94.267115703621,"perigee_km":482.25659537384,"apogee_km":483.87721173586,"semimajor_km":6861.2039035548,"source":"CELESTRAK","updated_at":"2026-05-25T13:38:18.576154Z"}}